Location: Gairloch Mountain Observatory
(46.1383°N, 60.9640°W)
Time: 20:20:33
(UTC-03:00)

Daily predictions for brighter satellites

Satellite Brightness Start Highest point End
(mag) Time Altitude Azimuth Time Altitude Azimuth Time Altitude Azimuth
Cosmos 494 Rocket 4.2 20:19:28 10° NNW 20:24:41 79° WSW 20:29:54 10° SSE
USA 186 1.2 20:25:35 10° SSE 20:27:43 45° ENE 20:29:57 10° N
Nadezhda 3 Rocket 4.2 20:21:34 10° N 20:27:45 55° ENE 20:33:57 10° SSE
In-Cosmos 22 Rocket 4.2 20:24:28 10° N 20:30:03 85° E 20:35:25 10° SSE
Centaur D-1A AC-31 4.2 20:20:09 10° SW 20:30:30 15° S 20:35:20 10° SSE
YAOGAN 6 2.6 20:29:44 10° SSE 20:33:16 61° ENE 20:36:54 10° N
Sich 1 3.1 20:30:13 10° N 20:34:28 60° E 20:38:41 10° SSE
Cosmos 2251 Rocket 3.6 20:30:03 10° NNW 20:35:27 75° ENE 20:40:49 10° SSE
Cosmos 2237 4.2 20:32:31 10° SSW 20:38:12 85° ESE 20:43:56 10° NNE
Cosmos 1151 Rocket 4.3 20:37:41 10° SE 20:40:50 21° E 20:44:01 10° NE
Cosmos 1340 2.7 20:37:41 10° S 20:41:25 62° E 20:45:11 10° NNE
Cosmos 2322 3.8 20:35:49 10° SSW 20:41:30 86° WNW 20:47:13 10° NNE
Meteor 2-3 Rocket 3.9 20:40:15 10° N 20:45:44 53° ENE 20:51:14 10° SSE
Cosmos 1939 Rocket 2.7 20:42:20 10° SSE 20:46:12 83° ENE 20:50:08 10° N
Envisat 3.7 20:41:26 10° S 20:46:26 58° W 20:51:28 10° NNW
SJ-6B 4.1 20:43:33 10° S 20:47:26 44° W 20:51:16 10° NNW
Meteor 2-15 Rocket 4.4 20:44:17 10° N 20:50:29 79° E 20:56:37 10° SSE
Cosmos 44 3.7 20:46:05 10° SW 20:50:34 64° NW 20:55:21 10° NNE
Cosmos 1825 3.5 20:48:15 10° NNE 20:51:18 22° ENE 20:53:31 14° ESE
Cosmos 1633 Rocket 3.0 20:48:49 10° N 20:53:11 72° E 20:57:30 10° SSE
BREEZE-M DEB (TANK) 4.3 20:48:31 10° SW 20:53:23 66° SSE 21:13:59 10° ENE
SL-24 R/B - RUBIN 2 3.9 20:52:54 10° NW 20:57:13 60° WSW 21:01:31 10° SSE
Cosmos 2228 Rocket 3.8 20:55:26 10° SSE 20:59:23 33° E 21:03:20 10° NNE
USA 234 4.5 20:55:19 10° ENE 21:01:09 36° N 21:06:58 10° NW
Thor Agena Rocket 3.8 20:57:53 10° NNE 21:03:07 77° WNW 21:08:22 10° SSW
Cosmos 1515 Rocket 4.1 21:01:04 10° SSE 21:05:12 39° E 21:09:22 10° NNE
Cosmos 2154 Rocket 4.1 20:59:24 10° S 21:05:42 88° W 21:11:58 10° N
ARGOS 3.7 21:03:03 15° SE 21:07:07 40° ENE 21:12:06 10° N
Cosmos 44 Rocket 3.7 21:04:17 10° SW 21:09:01 65° NW 21:13:57 10° NNE
Meteor 2-2 Rocket 4.4 21:08:10 10° S 21:14:00 85° W 21:20:01 10° N
Meteor 1-27 4.2 21:11:48 10° S 21:17:32 77° E 21:23:13 10° NNE
Cosmos 1980 4.0 21:12:34 10° S 21:17:52 42° ESE 21:23:11 10° NE
Cosmos 2360 Rocket 3.9 21:13:04 10° WSW 21:18:15 37° NW 21:23:28 10° NNE
NOSS 2-1 (C) 3.4 21:17:08 10° SW 21:20:45 72° NW 21:24:55 10° NE
Resurs 01 Rocket 2.5 21:16:49 10° S 21:21:07 49° W 21:25:27 10° NNW
NOSS 2-1 (D) 3.5 21:18:06 10° SW 21:21:43 70° NW 21:25:54 10° NE
OE (NEXTSAT) 4.4 21:18:40 10° WSW 21:22:10 58° SSE 21:24:05 24° E
Cosmos 2333 Rocket 2.1 21:18:14 10° SSW 21:23:51 72° ESE 21:29:30 10° NNE
ATLAS 2AS CENTAUR R/B 3.0 21:17:04 10° NW 21:25:04 83° SW 21:30:50 18° SSE
Cosmos 2341 Rocket 4.0 21:19:28 10° S 21:25:50 90° SE 21:32:13 10° N
Cosmos 1328 Rocket 3.6 21:22:03 10° S 21:26:27 87° W 21:30:55 10° N
Cosmos 2369 Rocket 4.5 21:25:45 10° NNE 21:27:33 11° NNE 21:29:22 10° NE
COSMOS 2428 3.2 21:23:29 10° SW 21:29:11 66° WNW 21:34:54 10° NNE
Spot 2 Rocket 4.0 21:24:29 10° S 21:29:31 59° WSW 21:34:34 10° NNW
Meteor 2-10 Rocket 4.2 21:30:11 21° SSE 21:33:30 39° E 21:38:52 10° NNE
Cosmos 2218 Rocket 4.1 21:27:42 10° S 21:33:55 60° E 21:40:13 10° NNE
Cosmos 1470 Rocket 3.6 21:29:50 10° N 21:34:14 80° W 21:37:40 16° S
Cosmos 1844 Rocket 4.0 21:29:44 10° NW 21:34:52 36° WSW 21:39:58 10° S
Cosmos 1455 3.0 21:36:10 10° SSW 21:39:53 51° WNW 21:43:41 10° N
Cosmos 1862 4.3 21:38:32 10° N 21:42:09 30° ENE 21:42:41 29° E
Aureole 2 3.9 21:40:17 15° SSW 21:42:42 89° WNW 21:45:39 10° NNE
Terra 3.4 21:43:02 18° E 21:44:11 20° ENE 21:47:33 10° NNE
Cosmos 2237 Rocket 2.1 21:40:12 10° SSW 21:45:43 64° ESE 21:51:19 10° NNE
Cosmos 2219 Rocket 2.6 21:41:14 10° SW 21:46:53 67° WNW 21:52:31 10° NNE
Cosmos 2366 rocket 3.9 21:42:43 13° S 21:48:19 69° E 21:54:35 10° NNE
Cosmos 1408 2.8 21:45:28 10° NNW 21:49:05 66° W 21:50:50 28° S
BREEZE-M DEB (TANK) 3.4 21:46:14 10° WNW 21:49:22 27° SW 21:49:38 26° SSW
USA 81 4.2 21:45:03 10° N 21:50:13 53° E 21:52:16 33° SE
Lacrosse 5 3.8 21:46:12 10° NW 21:50:22 25° N 21:54:32 10° ENE
Cosmos 2278 Rocket 2.3 21:46:34 10° NNW 21:52:15 74° WSW 21:55:31 26° SSE
SPOT 1/Viking Rocket 4.1 21:50:43 31° ESE 21:52:32 42° ENE 21:57:27 10° N
SPOT 5 3.3 21:51:37 34° ESE 21:52:50 41° ENE 21:57:03 10° N
NOSS 0 Rocket 3.9 21:47:16 10° SSW 21:53:27 85° ESE 21:59:42 10° NNE
ATLAS CENTAUR R/B 1.0 21:50:35 10° SW 21:54:15 86° NW 21:58:08 10° NE
NOSS 3-4 (A) 4.0 21:48:26 10° NW 21:55:19 62° NE 21:59:17 29° ESE
NOSS 3-4 (C) 4.0 21:48:32 10° NW 21:55:25 62° NE 21:59:23 29° ESE
MetOp-A 4.1 21:52:09 24° S 21:55:29 83° WSW 22:00:53 10° NNW
SL-8 Rocket 4.1 21:52:22 10° SSW 21:58:41 79° W 22:05:00 10° N
Genesis I 4.2 21:55:44 10° NW 21:59:36 41° WSW 22:01:00 30° SSW
H-2A R/B 1.9 21:58:30 32° SSE 22:00:54 87° ENE 22:05:54 10° NNW
Cosmos 2344 4.2 22:01:03 29° SE 22:02:07 30° ESE 22:08:56 10° NE
Cosmos 1933 Rocket 4.4 21:58:46 10° NNW 22:03:00 47° W 22:05:47 20° SSW
ATLAS 5 CENTAUR R/B 4.2 21:59:38 10° NNW 22:03:47 21° NNE 22:08:08 11° ENE
Cosmos 1339 Rocket 4.4 21:57:44 10° N 22:03:52 89° E 22:07:20 28° S
NOSS 3-3 (A) 4.3 21:58:07 10° SW 22:04:11 69° NW 22:10:58 10° NE
NOSS 3-3 (C) 4.3 21:58:12 10° SW 22:04:17 69° NW 22:11:04 10° NE
Cosmos 405 Rocket 3.7 22:05:53 31° ENE 22:05:53 31° ENE 22:08:36 10° NNE
Cosmos 407 Rocket 3.4 22:01:07 10° NNW 22:06:15 69° ENE 22:07:47 44° SE
USA 267 3.4 22:02:07 10° ENE 22:08:23 47° SE 22:14:37 10° SSW
ERS-1 Rocket 3.0 22:10:18 37° S 22:12:21 81° WSW 22:17:25 10° NNW
Cosmos 1371 Rocket 3.9 22:09:58 18° SSW 22:13:59 81° ESE 22:19:22 10° NNE
Cosmos 614 Rocket 4.4 22:10:54 10° NNW 22:15:57 46° ENE 22:16:59 41° E
Cosmos 1151 Rocket 4.4 22:14:11 10° SW 22:18:08 37° WNW 22:22:08 10° N
Cosmos 1707 Rocket 3.9 22:19:56 46° ENE 22:19:56 46° ENE 22:23:41 10° NNE
Cosmos 1933 4.4 22:24:16 32° NE 22:24:16 32° NE 22:26:58 10° NNE
Cosmos 676 Rocket 4.1 22:18:35 10° NNW 22:23:49 62° ENE 22:24:47 52° ESE
Cosmos 1869 Rocket 3.4 22:20:38 10° N 22:25:03 88° W 22:25:34 69° S
SL-19 R/B 4.2 22:23:42 48° SE 22:25:17 73° ENE 22:30:52 10° NNW
Cosmos 1825 4.0 22:23:36 10° NNW 22:26:51 27° W 22:28:24 20° SW
Cosmos 2098 Rocket 3.9 22:31:01 21° SW 22:33:49 47° W 22:37:35 10° N
SL-16 R/B 2.1 22:33:18 54° SSE 22:34:20 65° ESE 22:39:57 10° NNE
Cosmos 2056 Rocket 3.5 22:32:53 29° SSW 22:35:45 84° WNW 22:41:12 10° NNE
Cosmos 1452 Rocket 4.3 22:38:00 37° ENE 22:38:00 37° ENE 22:41:49 10° NE
CARTOSAT-1 3.8 22:37:43 58° NE 22:37:43 58° NE 22:41:44 10° N
Cosmos 1733 Rocket 4.0 22:34:20 10° N 22:37:50 36° NE 22:37:50 36° NE
Helios 1B rocket 2.6 22:34:27 10° NNE 22:38:01 63° NE 22:38:01 63° NE
SL-8 R/B 4.4 22:38:21 10° WSW 22:41:35 42° SW 22:41:35 42° SW
USA 234 3.6 22:40:33 33° E 22:43:29 60° NNE 22:49:54 10° NW
Cosmos 1023 Rocket 4.3 22:39:46 10° NNW 22:44:58 79° ENE 22:45:21 74° ESE
Cosmos 405 4.4 22:41:47 10° NNW 22:44:48 33° W 22:44:48 33° W
GEOS 3 Rocket 3.8 22:41:59 10° NE 22:47:22 73° NW 22:52:37 10° SW
Cosmos 1934 Rocket 4.1 22:47:29 49° E 22:47:44 50° E 22:53:32 10° NNE
Cosmos 1943 Rocket 3.6 22:44:58 10° N 22:49:27 24° NE 22:50:36 23° ENE
Helios 1A 3.9 22:49:42 40° WSW 22:50:04 41° W 22:54:04 10° NNW
Cosmos 1850 Rocket 4.5 22:48:59 10° N 22:53:59 45° ENE 22:54:02 45° ENE
CZ-2C R/B 3.2 22:58:35 52° NE 22:58:35 52° NE 23:02:52 10° N
Cosmos 1741 Rocket 4.4 22:55:17 10° NNW 23:00:29 50° ENE 23:00:31 50° ENE
Cosmos 2297 4.1 22:56:39 10° NW 23:02:09 52° WSW 23:02:58 48° SW
Landsat 7 4.1 23:03:40 57° WSW 23:03:48 57° W 23:08:31 10° NNW
Cosmos 1140 Rocket 3.5 23:01:12 10° NNW 23:06:22 70° WSW 23:06:25 70° WSW
BREEZE-M DEB (TANK) 4.1 23:03:14 10° WNW 23:05:13 24° WNW 23:05:13 24° WNW
Cosmos 2333 Rocket 4.5 23:04:17 10° W 23:08:42 23° NW 23:13:09 10° N
Cosmos 1954 Rocket 4.1 23:04:15 10° NNW 23:09:26 65° WSW 23:09:29 65° WSW
Cosmos 1821 Rocket 4.0 23:08:28 58° SSW 23:09:51 83° W 23:16:13 10° N
Meteor 1-25 Rocket 4.2 23:06:08 10° N 23:11:54 68° ENE 23:11:55 68° ENE
Nimbus 7 Rocket 4.2 23:07:07 10° NNE 23:13:04 79° ESE 23:13:18 77° SE
Cosmos 2369 Rocket 2.7 23:07:40 10° NNW 23:13:10 46° ENE 23:13:27 45° ENE
RESURS DK-1 4.2 23:10:33 10° N 23:13:18 25° NNE 23:13:18 25° NNE
Meteor 1-26 Rocket 4.1 23:16:00 75° ENE 23:16:00 75° ENE 23:21:14 10° NNE
SeaSat 1 4.1 23:15:50 23° ENE 23:16:24 23° NE 23:20:15 10° N
Spot 4 4.4 23:21:15 50° NNE 23:21:15 50° NNE 23:25:07 10° N
Terra 2.3 23:21:55 55° WNW 23:21:55 55° WNW 23:26:13 10° NNW
BREEZE M DEB (TANK) 3.8 23:08:52 10° W 23:21:30 66° NNW 23:22:58 44° NE
Cosmos 2123 Rocket 3.8 23:17:15 10° N 23:23:37 88° W 23:24:07 77° S
Cosmos 2237 Rocket 4.3 23:25:41 10° WSW 23:30:15 25° NW 23:34:53 10° N
ATLAS CENTAUR R/B 4.3 23:31:42 10° WNW 23:33:53 15° NNW 23:36:08 10° N
H-2A R/B 4.0 23:35:07 23° NE 23:35:07 23° NE 23:37:49 10° N
Lacrosse 5 2.6 23:29:24 10° NW 23:34:13 48° NNE 23:34:13 48° NNE
CZ-2C R/B 3.0 23:31:01 10° NNE 23:35:16 54° NE 23:35:16 54° NE
ALOS 2 4.5 23:39:21 24° NE 23:39:21 24° NE 23:41:48 10° N
CZ-4C R/B 3.0 23:41:44 40° NE 23:41:44 40° NE 23:45:43 10° NE
H-2A R/B 4.5 23:39:07 10° WSW 23:40:57 12° W 23:43:02 10° WNW
Cosmos 1420 Rocket 4.3 23:42:12 65° NW 23:42:12 65° NW 23:47:07 10° NNE
Meteor 1-20 Rocket 4.3 23:37:54 10° NNW 23:42:52 68° NW 23:42:52 68° NW
ATLAS 5 CENTAUR R/B 2.6 23:43:45 10° NW 23:49:33 62° NE 23:49:40 62° NE
USA 267 3.5 23:45:05 10° NE 23:51:34 65° NNW 23:58:01 10° WSW
